This is the latest recevied weather packets stored in our database for station/object K6GMW. If no packets are shown the sender has not sent any weather packets the latest 10 day(s).
| Time | Temp. | Humidity | Pressure | Rain* | Wind** | Luminosity | Snow |
|---|---|---|---|---|---|---|---|
| 1787952894 | 37.78° C | 36% | 1015.9 hPa | 0 mm | - | 481 W/m² | - |
| 1787952589 | 37.78° C | 36% | 1015.9 hPa | 0 mm | - | 507 W/m² | - |
| 1787952289 | 37.78° C | 37% | 1016.1 hPa | 0 mm | - | 540 W/m² | - |
| 1787951986 | 37.78° C | 36% | 1016.1 hPa | 0 mm | - | 571 W/m² | - |
| 1787951686 | 37.22° C | 37% | 1016 hPa | 0 mm | - | 609 W/m² | - |
| 1787951382 | 36.67° C | 39% | 1016.4 hPa | 0 mm | - | 606 W/m² | - |
| 1787951078 | 37.78° C | 36% | 1016.5 hPa | 0 mm | - | 600 W/m² | - |
| 1787950778 | 37.78° C | 37% | 1016.5 hPa | 0 mm | - | 621 W/m² | - |
| 1787950473 | 37.78° C | 38% | 1016.6 hPa | 0 mm | - | 659 W/m² | - |
| 1787950170 | 37.78° C | 37% | 1016.8 hPa | 0 mm | - | 217 W/m² | - |
| 1787949866 | 37.78° C | 35% | 1016.8 hPa | 0 mm | - | 697 W/m² | - |
| 1787949566 | 38.33° C | 34% | 1016.9 hPa | 0 mm | - | 442 W/m² | - |
| 1787949261 | 38.33° C | 35% | 1017 hPa | 0 mm | - | 782 W/m² | - |
| 1787948956 | 37.22° C | 36% | 1017 hPa | 0 mm | - | 837 W/m² | - |
| 1787948652 | 37.78° C | 35% | 1017.2 hPa | 0 mm | - | 854 W/m² | - |
| 1787948347 | 36.67° C | 38% | 1017.1 hPa | 0 mm | - | 899 W/m² | - |
| 1787948046 | 37.22° C | 36% | 1017.4 hPa | 0 mm | - | 345 W/m² | - |
| 1787947740 | 37.22° C | 37% | 1017.3 hPa | 0 mm | - | 934 W/m² | - |
| 1787947440 | 36.67° C | 36% | 1017.5 hPa | 0 mm | - | 920 W/m² | - |
| 1787947140 | 36.67° C | 36% | 1017.6 hPa | 0 mm | - | 492 W/m² | - |
| 1787946838 | 37.22° C | 35% | 1017.5 hPa | 0 mm | - | 328 W/m² | - |
| 1787946536 | 37.22° C | 34% | 1017.4 hPa | 0 mm | - | 360 W/m² | - |
| 1787946233 | 37.22° C | 34% | 1017.7 hPa | 0 mm | - | 919 W/m² | - |
| 1787945932 | 37.78° C | 34% | 1017.5 hPa | 0 mm | - | 319 W/m² | - |
| 1787945628 | 37.22° C | 37% | 1017.6 hPa | 0 mm | - | 954 W/m² | - |
* Rain latest hour (hover to see other rain measurements)
** Current wind speed in m/s (hover to see current wind gust speed)